Weather History for Phillips, WI

Change the Weather History Date:

Tuesday, January 22, 2013

  Actual Average Record
Temperature  
Mean Temperature -8 °F -  
Max Temperature 1 °F 19 °F 46 °F (2002)
Min Temperature -18 °F 2 °F -20 °F (2004)
Degree Days  
Heating Degree Days 74    
Moisture  
Dew Point -17 °F    
Average Humidity 69    
Maximum Humidity 84    
Minimum Humidity 47    
Precipitation  
Precipitation 0.00 in - - ()
Sea Level Pressure  
Sea Level Pressure 30.19 in    
Wind  
Wind Speed 2 mph (WSW)    
Max Wind Speed 10 mph    
Max Gust Speed -    
Visibility 10 miles    
Events      
Averages and records for this station are not official NWS values.
T = Trace of Precipitation, MM = Missing Value Source: NWS Daily Summary

Daily Weather History Graph

Daily Weather History Graph

Search for Another Location

Airport:

Trip Planner

Search our weather history database for the weather conditions in past years. The results will help you decide how hot, cold, wet, or windy it might be!

Date:

Astronomy

Jan. 22, 2013 Rise Set
Actual Time 7:33 AM CST 4:53 PM CST
Civil Twilight 7:00 AM CST 5:26 PM CST
Nautical Twilight 6:24 AM CST 6:02 PM CST
Astronomical Twilight 5:49 AM CST 6:38 PM CST
Moon 1:14 PM CST (1/22) 3:57 AM CST (1/22)
Length of Visible Light 10h 25m
Length of Day
9h 20m
Waxing Gibbous, 83% of the Moon is Illuminated
Jan 22
Waxing Gibbous
Jan 26
Full
Feb 3
Last Quarter
Feb 10
New
Feb 17
First Quarter

Hourly Weather History & Observations

Time (CST) Temp. Windchill Dew Point Humidity Pressure Visibility Wind Dir Wind Speed Gust Speed Precip Events Conditions
12:15 AM -14.8 °F - -18.4 °F 84% 30.14 in 10.0 mi Calm Calm - N/A   Clear
12:35 AM -14.8 °F - -18.4 °F 84% 30.14 in 10.0 mi Calm Calm - N/A   Clear
12:55 AM -14.8 °F - -18.4 °F 84% 30.14 in 10.0 mi Calm Calm - N/A   Clear
1:15 AM -14.8 °F -24.8 °F -18.4 °F 84% 30.14 in 10.0 mi West 3.5 mph - N/A   Clear
1:55 AM -14.8 °F - -18.4 °F 84% 30.15 in 10.0 mi Calm Calm - N/A   Clear
2:15 AM -14.8 °F - -20.2 °F 77% 30.16 in 10.0 mi Calm Calm - N/A   Clear
2:35 AM -14.8 °F - -20.2 °F 77% 30.16 in 10.0 mi Calm Calm - N/A   Clear
2:55 AM -16.6 °F - -20.2 °F 84% 30.17 in 10.0 mi Calm Calm - N/A   Clear
3:15 AM -16.6 °F - -20.2 °F 84% 30.17 in 10.0 mi Calm Calm - N/A   Clear
3:35 AM -16.6 °F - -20.2 °F 84% 30.18 in 10.0 mi Calm Calm - N/A   Clear
3:55 AM -16.6 °F - -20.2 °F 84% 30.18 in 10.0 mi Calm Calm - N/A   Clear
4:15 AM -16.6 °F - -20.2 °F 84% 30.17 in 10.0 mi Calm Calm - N/A   Clear
4:35 AM -16.6 °F - -20.2 °F 84% 30.17 in 10.0 mi Calm Calm - N/A   Clear
4:55 AM -16.6 °F - -22.0 °F 76% 30.17 in 10.0 mi Calm Calm - N/A   Clear
5:15 AM -16.6 °F - -22.0 °F 76% 30.17 in 10.0 mi Calm Calm - N/A   Clear
5:35 AM -16.6 °F - -22.0 °F 76% 30.18 in 10.0 mi Calm Calm - N/A   Clear
5:55 AM -18.4 °F - -23.8 °F 76% 30.18 in 10.0 mi Calm Calm - N/A   Clear
6:15 AM -18.4 °F - -23.8 °F 76% 30.19 in 7.0 mi Calm Calm - N/A   Clear
6:35 AM -18.4 °F - -23.8 °F 76% 30.19 in 10.0 mi Calm Calm - N/A   Clear
6:55 AM -18.4 °F - -23.8 °F 76% 30.19 in 10.0 mi Calm Calm - N/A   Clear
7:15 AM -18.4 °F - -23.8 °F 76% 30.19 in 7.0 mi Calm Calm - N/A   Clear
7:35 AM -18.4 °F - -23.8 °F 76% 30.19 in 10.0 mi Calm Calm - N/A   Clear
7:55 AM -18.4 °F - -23.8 °F 76% 30.20 in 10.0 mi Calm Calm - N/A   Clear
8:15 AM -18.4 °F - -23.8 °F 76% 30.19 in 10.0 mi Calm Calm - N/A   Clear
8:35 AM -16.6 °F - -22.0 °F 76% 30.20 in 10.0 mi Calm Calm - N/A   Clear
8:55 AM -16.6 °F -26.8 °F -20.2 °F 84% 30.20 in 10.0 mi NW 3.5 mph - N/A   Clear
9:15 AM -14.8 °F -27.2 °F -20.2 °F 77% 30.20 in 10.0 mi NW 4.6 mph - N/A   Clear
9:35 AM -14.8 °F -30.8 °F -18.4 °F 84% 30.22 in 10.0 mi NW 6.9 mph - N/A   Clear
9:55 AM -11.2 °F -27.8 °F -18.4 °F 70% 30.23 in 10.0 mi NW 8.1 mph - N/A   Clear
10:15 AM -11.2 °F -24.8 °F -18.4 °F 70% 30.23 in 10.0 mi WNW 5.8 mph - N/A   Clear
10:35 AM -9.4 °F -20.9 °F -16.6 °F 71% 30.23 in 10.0 mi West 4.6 mph - N/A   Clear
10:55 AM -9.4 °F -18.6 °F -16.6 °F 71% 30.24 in 10.0 mi NNW 3.5 mph - N/A   Clear
11:15 AM -7.6 °F -16.5 °F -16.6 °F 65% 30.23 in 10.0 mi West 3.5 mph - N/A   Clear
11:35 AM -5.8 °F - -16.6 °F 60% 30.22 in 10.0 mi Calm Calm - N/A   Clear
11:55 AM -5.8 °F - -16.6 °F 60% 30.21 in 10.0 mi Calm Calm - N/A   Clear
12:15 PM -4.0 °F - -16.6 °F 55% 30.21 in 10.0 mi Calm Calm - N/A   Clear
12:35 PM -2.2 °F -12.5 °F -14.8 °F 55% 30.19 in 10.0 mi SW 4.6 mph - N/A   Clear
12:55 PM -2.2 °F -12.5 °F -14.8 °F 55% 30.19 in 10.0 mi WSW 4.6 mph - N/A   Clear
1:15 PM -2.2 °F -10.4 °F -14.8 °F 55% 30.19 in 10.0 mi WSW 3.5 mph - N/A   Clear
1:35 PM -0.4 °F -12.0 °F -14.8 °F 51% 30.19 in 10.0 mi WSW 5.8 mph - N/A   Clear
1:55 PM -0.4 °F -12.0 °F -14.8 °F 51% 30.19 in 10.0 mi West 5.8 mph - N/A   Clear
2:15 PM 1.4 °F -12.5 °F -14.8 °F 47% 30.19 in 10.0 mi WSW 8.1 mph - N/A   Clear
2:35 PM 1.4 °F -11.3 °F -14.8 °F 47% 30.20 in 10.0 mi WSW 6.9 mph - N/A   Clear
2:55 PM 1.4 °F -11.3 °F -14.8 °F 47% 30.20 in 10.0 mi SW 6.9 mph - N/A   Clear
3:15 PM 1.4 °F -11.3 °F -14.8 °F 47% 30.19 in 10.0 mi WSW 6.9 mph - N/A   Clear
3:35 PM 1.4 °F -12.5 °F -14.8 °F 47% 30.19 in 10.0 mi WSW 8.1 mph - N/A   Clear
3:55 PM -0.4 °F -16.7 °F -14.8 °F 51% 30.19 in 10.0 mi SW 10.4 mph - N/A   Clear
4:15 PM -0.4 °F -15.7 °F -14.8 °F 51% 30.19 in 10.0 mi SW 9.2 mph - N/A   Clear
4:35 PM -0.4 °F -13.4 °F -14.8 °F 51% 30.20 in 10.0 mi WSW 6.9 mph - N/A   Clear
4:55 PM -0.4 °F -12.0 °F -14.8 °F 51% 30.20 in 10.0 mi SW 5.8 mph - N/A   Clear
5:15 PM -2.2 °F -15.6 °F -14.8 °F 55% 30.19 in 10.0 mi SW 6.9 mph - N/A   Clear
5:35 PM -2.2 °F -14.2 °F -14.8 °F 55% 30.20 in 10.0 mi SW 5.8 mph - N/A   Clear
5:55 PM -4.0 °F -17.8 °F -14.8 °F 60% 30.20 in 10.0 mi SW 6.9 mph - N/A   Clear
6:15 PM -4.0 °F -14.6 °F -14.8 °F 60% 30.20 in 10.0 mi SW 4.6 mph - N/A   Clear
6:35 PM -5.8 °F -18.4 °F -14.8 °F 65% 30.20 in 10.0 mi WSW 5.8 mph - N/A   Clear
6:55 PM -5.8 °F -18.4 °F -13.0 °F 71% 30.20 in 10.0 mi SW 5.8 mph - N/A   Clear
7:15 PM -5.8 °F -19.9 °F -13.0 °F 71% 30.19 in 10.0 mi WSW 6.9 mph - N/A   Clear
7:35 PM -5.8 °F -16.7 °F -14.8 °F 65% 30.19 in 10.0 mi WSW 4.6 mph - N/A   Clear
7:55 PM -5.8 °F -19.9 °F -14.8 °F 65% 30.18 in 10.0 mi WSW 6.9 mph - N/A   Clear
8:15 PM -5.8 °F -16.7 °F -14.8 °F 65% 30.18 in 10.0 mi WSW 4.6 mph - N/A   Clear
8:35 PM -7.6 °F -18.8 °F -14.8 °F 71% 30.18 in 10.0 mi SW 4.6 mph - N/A   Clear
8:55 PM -7.6 °F - -14.8 °F 71% 30.18 in 10.0 mi Calm Calm - N/A   Clear
9:15 PM -7.6 °F -16.5 °F -14.8 °F 71% 30.18 in 10.0 mi SW 3.5 mph - N/A   Clear
9:35 PM -7.6 °F - -14.8 °F 71% 30.17 in 10.0 mi Calm Calm - N/A   Clear
9:55 PM -9.4 °F - -14.8 °F 77% 30.17 in 10.0 mi Calm Calm - N/A   Clear
10:15 PM -7.6 °F - -14.8 °F 71% 30.17 in 10.0 mi Calm Calm - N/A   Clear
10:35 PM -7.6 °F - -14.8 °F 71% 30.17 in 10.0 mi Calm Calm - N/A   Clear
10:55 PM -7.6 °F -18.8 °F -14.8 °F 71% 30.17 in 10.0 mi SW 4.6 mph - N/A   Clear
11:15 PM -9.4 °F -18.6 °F -14.8 °F 77% 30.17 in 10.0 mi SW 3.5 mph - N/A   Clear
11:35 PM -9.4 °F - -14.8 °F 77% 30.16 in 10.0 mi Calm Calm - N/A   Clear
11:55 PM -9.4 °F - -14.8 °F 77% 30.15 in 10.0 mi Calm Calm - N/A   Clear